Location: Mahannah Oil Field
(37.4664°N, 96.6003°W)
Time: 07:48:28
(UTC+00:00)

Courier 1B - Pass Details

Date: 22 January 2021
Orbit: 962 x 1209 km, 28.3° (Epoch: 02 March)

Event Time Altitude Azimuth Distance (km) Brightness Sun altitude
Rises 11:37:14 0° 261° (W) 3,646 - -23.6°
Reaches altitude 10° 11:40:42 10° 244° (WSW) 2,717 - -22.9°
Exits shadow 11:43:32 17° 219° (SW) 2,257 9.1 -22.3°
Maximum altitude 11:45:00 18° 202° (SSW) 2,198 9.2 -22.0°
Drops below altitude 10° 11:49:25 10° 161° (SSE) 2,797 10.2 -21.2°
Sets 11:53:04 0° 143° (SE) 3,794 11.3 -20.5°
